Year,Month,Day,Hour,Minute,Value (Times are PST for insolation in W/m^2)
2012,03,02,00,00,0.00
2012,03,02,00,01,0.00
2012,03,02,00,02,0.00
2012,03,02,00,03,0.00
2012,03,02,00,04,0.00
2012,03,02,00,05,0.00
2012,03,02,00,06,0.00
2012,03,02,00,07,0.00
2012,03,02,00,08,0.00
2012,03,02,00,09,0.00
2012,03,02,00,10,0.00
2012,03,02,00,11,0.00
2012,03,02,00,12,0.00
2012,03,02,00,13,0.00
2012,03,02,00,14,0.00
2012,03,02,00,15,0.00
2012,03,02,00,16,0.00
2012,03,02,00,17,0.00
2012,03,02,00,18,0.00
2012,03,02,00,19,0.00
2012,03,02,00,20,0.00
2012,03,02,00,21,0.00
2012,03,02,00,22,0.00
2012,03,02,00,23,0.00
2012,03,02,00,24,0.00
2012,03,02,00,25,0.00
2012,03,02,00,26,0.00
2012,03,02,00,27,0.00
2012,03,02,00,28,0.00
2012,03,02,00,29,0.00
2012,03,02,00,30,0.00
2012,03,02,00,31,0.00
2012,03,02,00,32,0.00
2012,03,02,00,33,0.00
2012,03,02,00,34,0.00
2012,03,02,00,35,0.00
2012,03,02,00,36,0.00
2012,03,02,00,37,0.00
2012,03,02,00,38,0.00
2012,03,02,00,39,0.00
2012,03,02,00,40,0.00
2012,03,02,00,41,0.00
2012,03,02,00,42,0.00
2012,03,02,00,43,0.00
2012,03,02,00,44,0.00
2012,03,02,00,45,0.00
2012,03,02,00,46,0.00
2012,03,02,00,47,0.00
2012,03,02,00,48,0.00
2012,03,02,00,49,0.00
2012,03,02,00,50,0.00
2012,03,02,00,51,0.00
2012,03,02,00,52,0.00
2012,03,02,00,53,0.00
2012,03,02,00,54,0.00
2012,03,02,00,55,0.00
2012,03,02,00,56,0.00
2012,03,02,00,57,0.00
2012,03,02,00,58,0.00
2012,03,02,00,59,0.00
2012,03,02,01,00,0.00
2012,03,02,01,01,0.00
2012,03,02,01,02,0.00
2012,03,02,01,03,0.00
2012,03,02,01,04,0.00
2012,03,02,01,05,0.00
2012,03,02,01,06,0.00
2012,03,02,01,07,0.00
2012,03,02,01,08,0.00
2012,03,02,01,09,0.00
2012,03,02,01,10,0.00
2012,03,02,01,11,0.00
2012,03,02,01,12,0.00
2012,03,02,01,13,0.00
2012,03,02,01,14,0.00
2012,03,02,01,15,0.00
2012,03,02,01,16,0.00
2012,03,02,01,17,0.00
2012,03,02,01,18,0.00
2012,03,02,01,19,0.00
2012,03,02,01,20,0.00
2012,03,02,01,21,0.00
2012,03,02,01,22,0.00
2012,03,02,01,23,0.00
2012,03,02,01,24,0.00
2012,03,02,01,25,0.00
2012,03,02,01,26,0.00
2012,03,02,01,27,0.00
2012,03,02,01,28,0.00
2012,03,02,01,29,0.00
2012,03,02,01,30,0.00
2012,03,02,01,31,0.00
2012,03,02,01,32,0.00
2012,03,02,01,33,0.00
2012,03,02,01,34,0.00
2012,03,02,01,35,0.00
2012,03,02,01,36,0.00
2012,03,02,01,37,0.00
2012,03,02,01,38,0.00
2012,03,02,01,39,0.00
2012,03,02,01,40,0.00
2012,03,02,01,41,0.00
2012,03,02,01,42,0.00
2012,03,02,01,43,0.00
2012,03,02,01,44,0.00
2012,03,02,01,45,0.00
2012,03,02,01,46,0.00
2012,03,02,01,47,0.00
2012,03,02,01,48,0.00
2012,03,02,01,49,0.00
2012,03,02,01,50,0.00
2012,03,02,01,51,0.00
2012,03,02,01,52,0.00
2012,03,02,01,53,0.00
2012,03,02,01,54,0.00
2012,03,02,01,55,0.00
2012,03,02,01,56,0.00
2012,03,02,01,57,0.00
2012,03,02,01,58,0.00
2012,03,02,01,59,0.00
2012,03,02,02,00,0.00
2012,03,02,02,01,0.00
2012,03,02,02,02,0.00
2012,03,02,02,03,0.00
2012,03,02,02,04,0.00
2012,03,02,02,05,0.00
2012,03,02,02,06,0.00
2012,03,02,02,07,0.00
2012,03,02,02,08,0.00
2012,03,02,02,09,0.00
2012,03,02,02,10,0.00
2012,03,02,02,11,0.00
2012,03,02,02,12,0.00
2012,03,02,02,13,0.00
2012,03,02,02,14,0.00
2012,03,02,02,15,0.00
2012,03,02,02,16,0.00
2012,03,02,02,17,0.00
2012,03,02,02,18,0.00
2012,03,02,02,19,0.00
2012,03,02,02,20,0.00
2012,03,02,02,21,0.00
2012,03,02,02,22,0.00
2012,03,02,02,23,0.00
2012,03,02,02,24,0.00
2012,03,02,02,25,0.00
2012,03,02,02,26,0.00
2012,03,02,02,27,0.00
2012,03,02,02,28,0.00
2012,03,02,02,29,0.00
2012,03,02,02,30,0.00
2012,03,02,02,31,0.00
2012,03,02,02,32,0.00
2012,03,02,02,33,0.00
2012,03,02,02,34,0.00
2012,03,02,02,35,0.00
2012,03,02,02,36,0.00
2012,03,02,02,37,0.00
2012,03,02,02,38,0.00
2012,03,02,02,39,0.00
2012,03,02,02,40,0.00
2012,03,02,02,41,0.00
2012,03,02,02,42,0.00
2012,03,02,02,43,0.00
2012,03,02,02,44,0.00
2012,03,02,02,45,0.00
2012,03,02,02,46,0.00
2012,03,02,02,47,0.00
2012,03,02,02,48,0.00
2012,03,02,02,49,0.00
2012,03,02,02,50,0.00
2012,03,02,02,51,0.00
2012,03,02,02,52,0.00
2012,03,02,02,53,0.00
2012,03,02,02,54,0.00
2012,03,02,02,55,0.00
2012,03,02,02,56,0.00
2012,03,02,02,57,0.00
2012,03,02,02,58,0.00
2012,03,02,02,59,0.00
2012,03,02,03,00,0.00
2012,03,02,03,01,0.00
2012,03,02,03,02,0.00
2012,03,02,03,03,0.00
2012,03,02,03,04,0.00
2012,03,02,03,05,0.00
2012,03,02,03,06,0.00
2012,03,02,03,07,0.00
2012,03,02,03,08,0.00
2012,03,02,03,09,0.00
2012,03,02,03,10,0.00
2012,03,02,03,11,0.00
2012,03,02,03,12,0.00
2012,03,02,03,13,0.00
2012,03,02,03,14,0.00
2012,03,02,03,15,0.00
2012,03,02,03,16,0.00
2012,03,02,03,17,0.00
2012,03,02,03,18,0.00
2012,03,02,03,19,0.00
2012,03,02,03,20,0.00
2012,03,02,03,21,0.00
2012,03,02,03,22,0.00
2012,03,02,03,23,0.00
2012,03,02,03,24,0.00
2012,03,02,03,25,0.00
2012,03,02,03,26,0.00
2012,03,02,03,27,0.00
2012,03,02,03,28,0.00
2012,03,02,03,29,0.00
2012,03,02,03,30,0.00
2012,03,02,03,31,0.00
2012,03,02,03,32,0.00
2012,03,02,03,33,0.00
2012,03,02,03,34,0.00
2012,03,02,03,35,0.00
2012,03,02,03,36,0.00
2012,03,02,03,37,0.00
2012,03,02,03,38,0.00
2012,03,02,03,39,0.00
2012,03,02,03,40,0.00
2012,03,02,03,41,0.00
2012,03,02,03,42,0.00
2012,03,02,03,43,0.00
2012,03,02,03,44,0.00
2012,03,02,03,45,0.00
2012,03,02,03,46,0.00
2012,03,02,03,47,0.00
2012,03,02,03,48,0.00
2012,03,02,03,49,0.00
2012,03,02,03,50,0.00
2012,03,02,03,51,0.00
2012,03,02,03,52,0.00
2012,03,02,03,53,0.00
2012,03,02,03,54,0.00
2012,03,02,03,55,0.00
2012,03,02,03,56,0.00
2012,03,02,03,57,0.00
2012,03,02,03,58,0.00
2012,03,02,03,59,0.00
2012,03,02,04,00,0.00
2012,03,02,04,01,0.00
2012,03,02,04,02,0.00
2012,03,02,04,03,0.00
2012,03,02,04,04,0.00
2012,03,02,04,05,0.00
2012,03,02,04,06,0.00
2012,03,02,04,07,0.00
2012,03,02,04,08,0.00
2012,03,02,04,09,0.00
2012,03,02,04,10,0.00
2012,03,02,04,11,0.00
2012,03,02,04,12,0.00
2012,03,02,04,13,0.00
2012,03,02,04,14,0.00
2012,03,02,04,15,0.00
2012,03,02,04,16,0.00
2012,03,02,04,17,0.00
2012,03,02,04,18,0.00
2012,03,02,04,19,0.00
2012,03,02,04,20,0.00
2012,03,02,04,21,0.00
2012,03,02,04,22,0.00
2012,03,02,04,23,0.00
2012,03,02,04,24,0.00
2012,03,02,04,25,0.00
2012,03,02,04,26,0.00
2012,03,02,04,27,0.00
2012,03,02,04,28,0.00
2012,03,02,04,29,0.00
2012,03,02,04,30,0.00
2012,03,02,04,31,0.00
2012,03,02,04,32,0.00
2012,03,02,04,33,0.00
2012,03,02,04,34,0.00
2012,03,02,04,35,0.00
2012,03,02,04,36,0.00
2012,03,02,04,37,0.00
2012,03,02,04,38,0.00
2012,03,02,04,39,0.00
2012,03,02,04,40,0.00
2012,03,02,04,41,0.00
2012,03,02,04,42,0.00
2012,03,02,04,43,0.00
2012,03,02,04,44,0.00
2012,03,02,04,45,0.00
2012,03,02,04,46,0.00
2012,03,02,04,47,0.00
2012,03,02,04,48,0.00
2012,03,02,04,49,0.00
2012,03,02,04,50,0.00
2012,03,02,04,51,0.00
2012,03,02,04,52,0.00
2012,03,02,04,53,0.00
2012,03,02,04,54,0.00
2012,03,02,04,55,0.00
2012,03,02,04,56,0.00
2012,03,02,04,57,0.00
2012,03,02,04,58,0.00
2012,03,02,04,59,0.00
2012,03,02,05,00,0.00
2012,03,02,05,01,0.00
2012,03,02,05,02,0.00
2012,03,02,05,03,0.00
2012,03,02,05,04,0.00
2012,03,02,05,05,0.00
2012,03,02,05,06,0.00
2012,03,02,05,07,0.00
2012,03,02,05,08,0.00
2012,03,02,05,09,0.00
2012,03,02,05,10,0.00
2012,03,02,05,11,0.00
2012,03,02,05,12,0.00
2012,03,02,05,13,0.00
2012,03,02,05,14,0.00
2012,03,02,05,15,0.00
2012,03,02,05,16,0.00
2012,03,02,05,17,0.00
2012,03,02,05,18,0.00
2012,03,02,05,19,0.00
2012,03,02,05,20,0.00
2012,03,02,05,21,0.00
2012,03,02,05,22,0.00
2012,03,02,05,23,0.00
2012,03,02,05,24,0.00
2012,03,02,05,25,0.00
2012,03,02,05,26,0.00
2012,03,02,05,27,0.00
2012,03,02,05,28,0.00
2012,03,02,05,29,0.00
2012,03,02,05,30,0.00
2012,03,02,05,31,0.00
2012,03,02,05,32,0.00
2012,03,02,05,33,0.00
2012,03,02,05,34,0.00
2012,03,02,05,35,0.00
2012,03,02,05,36,0.00
2012,03,02,05,37,0.00
2012,03,02,05,38,0.00
2012,03,02,05,39,0.00
2012,03,02,05,40,0.00
2012,03,02,05,41,0.00
2012,03,02,05,42,0.00
2012,03,02,05,43,0.00
2012,03,02,05,44,0.00
2012,03,02,05,45,0.00
2012,03,02,05,46,0.00
2012,03,02,05,47,0.00
2012,03,02,05,48,0.00
2012,03,02,05,49,0.00
2012,03,02,05,50,0.00
2012,03,02,05,51,0.00
2012,03,02,05,52,0.00
2012,03,02,05,53,0.00
2012,03,02,05,54,0.00
2012,03,02,05,55,0.00
2012,03,02,05,56,0.00
2012,03,02,05,57,0.00
2012,03,02,05,58,0.00
2012,03,02,05,59,0.00
2012,03,02,06,00,0.00
2012,03,02,06,01,0.00
2012,03,02,06,02,0.00
2012,03,02,06,03,0.00
2012,03,02,06,04,0.00
2012,03,02,06,05,0.00
2012,03,02,06,06,0.00
2012,03,02,06,07,0.00
2012,03,02,06,08,0.00
2012,03,02,06,09,0.00
2012,03,02,06,10,0.00
2012,03,02,06,11,0.00
2012,03,02,06,12,0.00
2012,03,02,06,13,0.00
2012,03,02,06,14,0.00
2012,03,02,06,15,0.00
2012,03,02,06,16,0.00
2012,03,02,06,17,0.00
2012,03,02,06,18,0.00
2012,03,02,06,19,0.00
2012,03,02,06,20,0.00
2012,03,02,06,21,0.00
2012,03,02,06,22,0.00
2012,03,02,06,23,0.00
2012,03,02,06,24,0.00
2012,03,02,06,25,0.00
2012,03,02,06,26,0.00
2012,03,02,06,27,0.00
2012,03,02,06,28,0.00
2012,03,02,06,29,0.00
2012,03,02,06,30,0.00
2012,03,02,06,31,0.00
2012,03,02,06,32,0.00
2012,03,02,06,33,0.00
2012,03,02,06,34,0.00
2012,03,02,06,35,0.00
2012,03,02,06,36,0.00
2012,03,02,06,37,0.00
2012,03,02,06,38,0.00
2012,03,02,06,39,0.00
2012,03,02,06,40,0.00
2012,03,02,06,41,0.00
2012,03,02,06,42,0.00
2012,03,02,06,43,0.00
2012,03,02,06,44,0.00
2012,03,02,06,45,0.00
2012,03,02,06,46,0.00
2012,03,02,06,47,0.00
2012,03,02,06,48,0.00
2012,03,02,06,49,0.00
2012,03,02,06,50,0.00
2012,03,02,06,51,0.00
2012,03,02,06,52,0.00
2012,03,02,06,53,0.00
2012,03,02,06,54,0.00
2012,03,02,06,55,0.00
2012,03,02,06,56,0.00
2012,03,02,06,57,0.00
2012,03,02,06,58,0.00
2012,03,02,06,59,0.00
2012,03,02,07,00,0.00
2012,03,02,07,01,0.00
2012,03,02,07,02,0.00
2012,03,02,07,03,0.00
2012,03,02,07,04,0.00
2012,03,02,07,05,0.00
2012,03,02,07,06,0.00
2012,03,02,07,07,0.00
2012,03,02,07,08,0.00
2012,03,02,07,09,0.00
2012,03,02,07,10,0.00
2012,03,02,07,11,0.00
2012,03,02,07,12,0.00
2012,03,02,07,13,0.00
2012,03,02,07,14,0.00
2012,03,02,07,15,0.00
2012,03,02,07,16,0.00
2012,03,02,07,17,0.90
2012,03,02,07,18,5.00
2012,03,02,07,19,5.00
2012,03,02,07,20,5.00
2012,03,02,07,21,5.00
2012,03,02,07,22,5.00
2012,03,02,07,23,5.00
2012,03,02,07,24,5.00
2012,03,02,07,25,5.30
2012,03,02,07,26,7.00
2012,03,02,07,27,7.00
2012,03,02,07,28,7.00
2012,03,02,07,29,8.10
2012,03,02,07,30,9.00
2012,03,02,07,31,9.00
2012,03,02,07,32,9.00
2012,03,02,07,33,9.00
2012,03,02,07,34,9.00
2012,03,02,07,35,9.00
2012,03,02,07,36,9.00
2012,03,02,07,37,9.00
2012,03,02,07,38,9.00
2012,03,02,07,39,10.40
2012,03,02,07,40,11.00
2012,03,02,07,41,11.00
2012,03,02,07,42,11.10
2012,03,02,07,43,12.00
2012,03,02,07,44,12.00
2012,03,02,07,45,12.00
2012,03,02,07,46,12.00
2012,03,02,07,47,12.00
2012,03,02,07,48,12.00
2012,03,02,07,49,12.00
2012,03,02,07,50,12.00
2012,03,02,07,51,12.00
2012,03,02,07,52,12.00
2012,03,02,07,53,12.00
2012,03,02,07,54,12.00
2012,03,02,07,55,12.00
2012,03,02,07,56,13.30
2012,03,02,07,57,14.00
2012,03,02,07,58,14.00
2012,03,02,07,59,15.90
2012,03,02,08,00,16.30
2012,03,02,08,01,18.30
2012,03,02,08,02,19.00
2012,03,02,08,03,20.00
2012,03,02,08,04,21.00
2012,03,02,08,05,22.50
2012,03,02,08,06,23.00
2012,03,02,08,07,24.80
2012,03,02,08,08,26.30
2012,03,02,08,09,28.50
2012,03,02,08,10,30.00
2012,03,02,08,11,30.90
2012,03,02,08,12,32.50
2012,03,02,08,13,34.30
2012,03,02,08,14,35.00
2012,03,02,08,15,33.30
2012,03,02,08,16,32.00
2012,03,02,08,17,32.00
2012,03,02,08,18,32.30
2012,03,02,08,19,35.20
2012,03,02,08,20,40.40
2012,03,02,08,21,40.90
2012,03,02,08,22,40.00
2012,03,02,08,23,40.00
2012,03,02,08,24,41.70
2012,03,02,08,25,44.30
2012,03,02,08,26,47.40
2012,03,02,08,27,49.00
2012,03,02,08,28,49.80
2012,03,02,08,29,52.50
2012,03,02,08,30,56.40
2012,03,02,08,31,62.80
2012,03,02,08,32,65.00
2012,03,02,08,33,68.50
2012,03,02,08,34,67.30
2012,03,02,08,35,69.60
2012,03,02,08,36,72.00
2012,03,02,08,37,69.60
2012,03,02,08,38,65.90
2012,03,02,08,39,65.00
2012,03,02,08,40,65.00
2012,03,02,08,41,66.70
2012,03,02,08,42,72.70
2012,03,02,08,43,83.20
2012,03,02,08,44,84.00
2012,03,02,08,45,86.80
2012,03,02,08,46,92.00
2012,03,02,08,47,91.80
2012,03,02,08,48,91.00
2012,03,02,08,49,94.10
2012,03,02,08,50,91.40
2012,03,02,08,51,85.60
2012,03,02,08,52,82.10
2012,03,02,08,53,78.40
2012,03,02,08,54,77.00
2012,03,02,08,55,77.00
2012,03,02,08,56,76.40
2012,03,02,08,57,71.60
2012,03,02,08,58,70.00
2012,03,02,08,59,75.80
2012,03,02,09,00,76.30
2012,03,02,09,01,72.50
2012,03,02,09,02,76.50
2012,03,02,09,03,85.50
2012,03,02,09,04,95.00
2012,03,02,09,05,94.60
2012,03,02,09,06,99.80
2012,03,02,09,07,104.60
2012,03,02,09,08,103.80
2012,03,02,09,09,103.60
2012,03,02,09,10,116.20
2012,03,02,09,11,130.50
2012,03,02,09,12,135.50
2012,03,02,09,13,140.10
2012,03,02,09,14,142.00
2012,03,02,09,15,142.00
2012,03,02,09,16,145.70
2012,03,02,09,17,146.00
2012,03,02,09,18,146.00
2012,03,02,09,19,145.30
2012,03,02,09,20,144.00
2012,03,02,09,21,144.00
2012,03,02,09,22,144.00
2012,03,02,09,23,145.50
2012,03,02,09,24,142.50
2012,03,02,09,25,142.30
2012,03,02,09,26,145.60
2012,03,02,09,27,142.60
2012,03,02,09,28,135.00
2012,03,02,09,29,130.90
2012,03,02,09,30,131.50
2012,03,02,09,31,126.60
2012,03,02,09,32,129.10
2012,03,02,09,33,127.30
2012,03,02,09,34,125.20
2012,03,02,09,35,125.50
2012,03,02,09,36,116.90
2012,03,02,09,37,111.20
2012,03,02,09,38,118.90
2012,03,02,09,39,124.30
2012,03,02,09,40,123.60
2012,03,02,09,41,117.20
2012,03,02,09,42,114.50
2012,03,02,09,43,124.00
2012,03,02,09,44,130.00
2012,03,02,09,45,129.30
2012,03,02,09,46,127.50
2012,03,02,09,47,128.70
2012,03,02,09,48,128.60
2012,03,02,09,49,128.00
2012,03,02,09,50,119.40
2012,03,02,09,51,124.50
2012,03,02,09,52,118.70
2012,03,02,09,53,114.90
2012,03,02,09,54,121.20
2012,03,02,09,55,125.00
2012,03,02,09,56,127.00
2012,03,02,09,57,127.00
2012,03,02,09,58,127.00
2012,03,02,09,59,122.20
2012,03,02,10,00,135.00
2012,03,02,10,01,134.80
2012,03,02,10,02,133.30
2012,03,02,10,03,127.20
2012,03,02,10,04,108.50
2012,03,02,10,05,96.10
2012,03,02,10,06,89.90
2012,03,02,10,07,82.00
2012,03,02,10,08,86.10
2012,03,02,10,09,93.00
2012,03,02,10,10,93.00
2012,03,02,10,11,93.00
2012,03,02,10,12,92.00
2012,03,02,10,13,82.30
2012,03,02,10,14,70.00
2012,03,02,10,15,62.90
2012,03,02,10,16,62.00
2012,03,02,10,17,63.40
2012,03,02,10,18,67.70
2012,03,02,10,19,72.00
2012,03,02,10,20,80.10
2012,03,02,10,21,93.60
2012,03,02,10,22,104.30
2012,03,02,10,23,107.00
2012,03,02,10,24,107.00
2012,03,02,10,25,104.10
2012,03,02,10,26,104.00
2012,03,02,10,27,102.40
2012,03,02,10,28,97.60
2012,03,02,10,29,100.20
2012,03,02,10,30,106.80
2012,03,02,10,31,117.20
2012,03,02,10,32,122.50
2012,03,02,10,33,114.30
2012,03,02,10,34,100.00
2012,03,02,10,35,100.90
2012,03,02,10,36,105.60
2012,03,02,10,37,106.20
2012,03,02,10,38,104.50
2012,03,02,10,39,104.60
2012,03,02,10,40,105.00
2012,03,02,10,41,111.50
2012,03,02,10,42,113.90
2012,03,02,10,43,111.00
2012,03,02,10,44,106.50
2012,03,02,10,45,87.20
2012,03,02,10,46,79.00
2012,03,02,10,47,81.70
2012,03,02,10,48,82.10
2012,03,02,10,49,83.20
2012,03,02,10,50,97.70
2012,03,02,10,51,116.90
2012,03,02,10,52,134.90
2012,03,02,10,53,138.50
2012,03,02,10,54,136.30
2012,03,02,10,55,130.20
2012,03,02,10,56,122.60
2012,03,02,10,57,127.10
2012,03,02,10,58,134.10
2012,03,02,10,59,135.00
2012,03,02,11,00,142.40
2012,03,02,11,01,143.50
2012,03,02,11,02,130.50
2012,03,02,11,03,119.80
2012,03,02,11,04,115.90
2012,03,02,11,05,115.30
2012,03,02,11,06,119.60
2012,03,02,11,07,126.80
2012,03,02,11,08,134.80
2012,03,02,11,09,136.30
2012,03,02,11,10,132.00
2012,03,02,11,11,133.10
2012,03,02,11,12,135.00
2012,03,02,11,13,136.20
2012,03,02,11,14,140.40
2012,03,02,11,15,142.00
2012,03,02,11,16,147.20
2012,03,02,11,17,150.70
2012,03,02,11,18,151.00
2012,03,02,11,19,164.90
2012,03,02,11,20,179.00
2012,03,02,11,21,184.60
2012,03,02,11,22,184.20
2012,03,02,11,23,179.40
2012,03,02,11,24,174.60
2012,03,02,11,25,182.10
2012,03,02,11,26,185.10
2012,03,02,11,27,186.00
2012,03,02,11,28,186.60
2012,03,02,11,29,187.10
2012,03,02,11,30,187.10
2012,03,02,11,31,186.10
2012,03,02,11,32,185.00
2012,03,02,11,33,185.90
2012,03,02,11,34,185.90
2012,03,02,11,35,182.10
2012,03,02,11,36,162.30
2012,03,02,11,37,154.20
2012,03,02,11,38,152.00
2012,03,02,11,39,149.80
2012,03,02,11,40,153.80
2012,03,02,11,41,159.10
2012,03,02,11,42,170.00
2012,03,02,11,43,169.00
2012,03,02,11,44,169.70
2012,03,02,11,45,169.10
2012,03,02,11,46,157.50
2012,03,02,11,47,153.10
2012,03,02,11,48,158.20
2012,03,02,11,49,161.50
2012,03,02,11,50,166.30
2012,03,02,11,51,171.60
2012,03,02,11,52,167.10
2012,03,02,11,53,152.00
2012,03,02,11,54,141.50
2012,03,02,11,55,136.10
2012,03,02,11,56,134.40
2012,03,02,11,57,134.00
2012,03,02,11,58,142.10
2012,03,02,11,59,142.30
2012,03,02,12,00,139.40
2012,03,02,12,01,142.80
2012,03,02,12,02,147.90
2012,03,02,12,03,155.00
2012,03,02,12,04,159.00
2012,03,02,12,05,160.00
2012,03,02,12,06,158.50
2012,03,02,12,07,156.40
2012,03,02,12,08,154.90
2012,03,02,12,09,150.80
2012,03,02,12,10,147.90
2012,03,02,12,11,142.40
2012,03,02,12,12,139.00
2012,03,02,12,13,140.60
2012,03,02,12,14,145.70
2012,03,02,12,15,153.90
2012,03,02,12,16,156.00
2012,03,02,12,17,152.90
2012,03,02,12,18,147.70
2012,03,02,12,19,146.50
2012,03,02,12,20,149.10
2012,03,02,12,21,152.90
2012,03,02,12,22,155.00
2012,03,02,12,23,153.60
2012,03,02,12,24,151.40
2012,03,02,12,25,151.00
2012,03,02,12,26,150.70
2012,03,02,12,27,149.00
2012,03,02,12,28,149.70
2012,03,02,12,29,151.00
2012,03,02,12,30,149.90
2012,03,02,12,31,145.80
2012,03,02,12,32,140.40
2012,03,02,12,33,135.50
2012,03,02,12,34,137.00
2012,03,02,12,35,138.70
2012,03,02,12,36,135.60
2012,03,02,12,37,128.70
2012,03,02,12,38,119.80
2012,03,02,12,39,116.00
2012,03,02,12,40,117.40
2012,03,02,12,41,116.50
2012,03,02,12,42,111.70
2012,03,02,12,43,104.70
2012,03,02,12,44,102.50
2012,03,02,12,45,105.50
2012,03,02,12,46,107.00
2012,03,02,12,47,104.50
2012,03,02,12,48,99.60
2012,03,02,12,49,94.50
2012,03,02,12,50,88.90
2012,03,02,12,51,86.20
2012,03,02,12,52,88.30
2012,03,02,12,53,90.20
2012,03,02,12,54,90.70
2012,03,02,12,55,89.10
2012,03,02,12,56,86.90
2012,03,02,12,57,86.00
2012,03,02,12,58,87.50
2012,03,02,12,59,88.00
2012,03,02,13,00,89.70
2012,03,02,13,01,87.60
2012,03,02,13,02,85.40
2012,03,02,13,03,83.60
2012,03,02,13,04,82.10
2012,03,02,13,05,79.80
2012,03,02,13,06,79.00
2012,03,02,13,07,80.60
2012,03,02,13,08,85.50
2012,03,02,13,09,93.70
2012,03,02,13,10,99.40
2012,03,02,13,11,104.30
2012,03,02,13,12,105.80
2012,03,02,13,13,107.00
2012,03,02,13,14,107.00
2012,03,02,13,15,107.00
2012,03,02,13,16,107.00
2012,03,02,13,17,107.00
2012,03,02,13,18,107.30
2012,03,02,13,19,109.00
2012,03,02,13,20,110.50
2012,03,02,13,21,116.00
2012,03,02,13,22,123.00
2012,03,02,13,23,127.00
2012,03,02,13,24,128.00
2012,03,02,13,25,125.40
2012,03,02,13,26,117.40
2012,03,02,13,27,109.70
2012,03,02,13,28,102.40
2012,03,02,13,29,97.60
2012,03,02,13,30,97.00
2012,03,02,13,31,95.80
2012,03,02,13,32,95.00
2012,03,02,13,33,95.00
2012,03,02,13,34,96.80
2012,03,02,13,35,95.00
2012,03,02,13,36,94.50
2012,03,02,13,37,93.00
2012,03,02,13,38,93.00
2012,03,02,13,39,99.00
2012,03,02,13,40,104.60
2012,03,02,13,41,99.80
2012,03,02,13,42,93.70
2012,03,02,13,43,93.20
2012,03,02,13,44,95.40
2012,03,02,13,45,97.30
2012,03,02,13,46,98.70
2012,03,02,13,47,101.00
2012,03,02,13,48,103.80
2012,03,02,13,49,107.80
2012,03,02,13,50,104.90
2012,03,02,13,51,94.00
2012,03,02,13,52,87.60
2012,03,02,13,53,82.90
2012,03,02,13,54,77.40
2012,03,02,13,55,74.00
2012,03,02,13,56,75.60
2012,03,02,13,57,80.80
2012,03,02,13,58,86.60
2012,03,02,13,59,90.50
2012,03,02,14,00,92.90
2012,03,02,14,01,92.70
2012,03,02,14,02,90.80
2012,03,02,14,03,90.00
2012,03,02,14,04,90.00
2012,03,02,14,05,87.70
2012,03,02,14,06,84.00
2012,03,02,14,07,79.90
2012,03,02,14,08,80.70
2012,03,02,14,09,84.40
2012,03,02,14,10,88.50
2012,03,02,14,11,91.60
2012,03,02,14,12,93.00
2012,03,02,14,13,93.00
2012,03,02,14,14,94.30
2012,03,02,14,15,95.00
2012,03,02,14,16,95.00
2012,03,02,14,17,93.20
2012,03,02,14,18,93.00
2012,03,02,14,19,94.10
2012,03,02,14,20,100.40
2012,03,02,14,21,106.80
2012,03,02,14,22,110.00
2012,03,02,14,23,109.70
2012,03,02,14,24,103.90
2012,03,02,14,25,98.40
2012,03,02,14,26,97.00
2012,03,02,14,27,96.40
2012,03,02,14,28,92.20
2012,03,02,14,29,88.50
2012,03,02,14,30,82.70
2012,03,02,14,31,77.20
2012,03,02,14,32,74.60
2012,03,02,14,33,74.00
2012,03,02,14,34,78.50
2012,03,02,14,35,84.20
2012,03,02,14,36,86.00
2012,03,02,14,37,85.40
2012,03,02,14,38,84.00
2012,03,02,14,39,83.50
2012,03,02,14,40,80.50
2012,03,02,14,41,77.50
2012,03,02,14,42,78.70
2012,03,02,14,43,76.90
2012,03,02,14,44,71.60
2012,03,02,14,45,68.00
2012,03,02,14,46,65.00
2012,03,02,14,47,65.90
2012,03,02,14,48,68.10
2012,03,02,14,49,69.70
2012,03,02,14,50,71.50
2012,03,02,14,51,73.70
2012,03,02,14,52,74.20
2012,03,02,14,53,76.00
2012,03,02,14,54,76.00
2012,03,02,14,55,75.10
2012,03,02,14,56,74.00
2012,03,02,14,57,74.00
2012,03,02,14,58,76.20
2012,03,02,14,59,78.60
2012,03,02,15,00,82.60
2012,03,02,15,01,86.00
2012,03,02,15,02,85.50
2012,03,02,15,03,81.50
2012,03,02,15,04,74.70
2012,03,02,15,05,69.40
2012,03,02,15,06,64.50
2012,03,02,15,07,62.20
2012,03,02,15,08,62.00
2012,03,02,15,09,60.00
2012,03,02,15,10,57.70
2012,03,02,15,11,55.40
2012,03,02,15,12,54.00
2012,03,02,15,13,54.00
2012,03,02,15,14,55.20
2012,03,02,15,15,57.40
2012,03,02,15,16,58.00
2012,03,02,15,17,58.00
2012,03,02,15,18,60.20
2012,03,02,15,19,62.70
2012,03,02,15,20,65.60
2012,03,02,15,21,67.80
2012,03,02,15,22,69.00
2012,03,02,15,23,67.80
2012,03,02,15,24,67.00
2012,03,02,15,25,67.00
2012,03,02,15,26,65.10
2012,03,02,15,27,63.00
2012,03,02,15,28,62.70
2012,03,02,15,29,61.20
2012,03,02,15,30,58.20
2012,03,02,15,31,54.20
2012,03,02,15,32,51.60
2012,03,02,15,33,54.90
2012,03,02,15,34,59.50
2012,03,02,15,35,60.00
2012,03,02,15,36,59.60
2012,03,02,15,37,56.60
2012,03,02,15,38,50.30
2012,03,02,15,39,45.10
2012,03,02,15,40,44.00
2012,03,02,15,41,40.50
2012,03,02,15,42,37.40
2012,03,02,15,43,35.20
2012,03,02,15,44,35.40
2012,03,02,15,45,39.20
2012,03,02,15,46,39.00
2012,03,02,15,47,35.20
2012,03,02,15,48,33.00
2012,03,02,15,49,32.40
2012,03,02,15,50,32.00
2012,03,02,15,51,34.60
2012,03,02,15,52,38.90
2012,03,02,15,53,40.30
2012,03,02,15,54,42.00
2012,03,02,15,55,43.50
2012,03,02,15,56,46.00
2012,03,02,15,57,44.80
2012,03,02,15,58,44.00
2012,03,02,15,59,46.30
2012,03,02,16,00,48.80
2012,03,02,16,01,46.70
2012,03,02,16,02,43.60
2012,03,02,16,03,43.20
2012,03,02,16,04,46.00
2012,03,02,16,05,46.00
2012,03,02,16,06,46.60
2012,03,02,16,07,47.00
2012,03,02,16,08,47.00
2012,03,02,16,09,46.80
2012,03,02,16,10,44.00
2012,03,02,16,11,43.50
2012,03,02,16,12,41.30
2012,03,02,16,13,40.00
2012,03,02,16,14,40.00
2012,03,02,16,15,44.80
2012,03,02,16,16,51.60
2012,03,02,16,17,53.90
2012,03,02,16,18,52.80
2012,03,02,16,19,50.20
2012,03,02,16,20,47.60
2012,03,02,16,21,49.00
2012,03,02,16,22,50.00
2012,03,02,16,23,52.20
2012,03,02,16,24,53.70
2012,03,02,16,25,54.00
2012,03,02,16,26,54.00
2012,03,02,16,27,56.30
2012,03,02,16,28,55.90
2012,03,02,16,29,46.80
2012,03,02,16,30,39.00
2012,03,02,16,31,35.00
2012,03,02,16,32,28.50
2012,03,02,16,33,21.90
2012,03,02,16,34,21.00
2012,03,02,16,35,21.20
2012,03,02,16,36,23.00
2012,03,02,16,37,22.40
2012,03,02,16,38,21.00
2012,03,02,16,39,20.00
2012,03,02,16,40,19.00
2012,03,02,16,41,18.30
2012,03,02,16,42,18.00
2012,03,02,16,43,18.90
2012,03,02,16,44,19.00
2012,03,02,16,45,19.40
2012,03,02,16,46,21.60
2012,03,02,16,47,23.80
2012,03,02,16,48,25.50
2012,03,02,16,49,27.20
2012,03,02,16,50,28.00
2012,03,02,16,51,26.30
2012,03,02,16,52,26.00
2012,03,02,16,53,25.00
2012,03,02,16,54,25.00
2012,03,02,16,55,25.00
2012,03,02,16,56,25.00
2012,03,02,16,57,23.90
2012,03,02,16,58,21.70
2012,03,02,16,59,21.00
2012,03,02,17,00,21.00
2012,03,02,17,01,21.10
2012,03,02,17,02,23.40
2012,03,02,17,03,24.50
2012,03,02,17,04,23.00
2012,03,02,17,05,22.00
2012,03,02,17,06,19.90
2012,03,02,17,07,20.40
2012,03,02,17,08,21.00
2012,03,02,17,09,21.00
2012,03,02,17,10,21.30
2012,03,02,17,11,23.50
2012,03,02,17,12,25.30
2012,03,02,17,13,25.50
2012,03,02,17,14,25.50
2012,03,02,17,15,26.00
2012,03,02,17,16,25.30
2012,03,02,17,17,21.50
2012,03,02,17,18,19.00
2012,03,02,17,19,18.20
2012,03,02,17,20,18.70
2012,03,02,17,21,17.30
2012,03,02,17,22,16.00
2012,03,02,17,23,14.80
2012,03,02,17,24,14.00
2012,03,02,17,25,12.40
2012,03,02,17,26,11.10
2012,03,02,17,27,11.00
2012,03,02,17,28,11.00
2012,03,02,17,29,11.00